Terminal Aerodrome Forecast
Issued by NWS

Home | Current Version | Previous Version | Text Only | Print | Product List | Glossary On
Versions: 1 2 3 4 5 6 7 8 9 10 11 12 13 14 15 16 17 18 19 20 21 22 23 24 25 26 27 28 29 30 31 32 33 34 35 36 37
000
FTAK31 PAFA 041120
TAFASC
TAF
PASC 041120Z 0412/0512 08022G30KT P6SM OVC005
     FM042200 08020G26KT P6SM OVC006
     FM050300 08018G23KT P6SM OVC004
     FM050900 08013KT P6SM OVC003
     FM051100 08013KT 1SM BR OVC002=

USA.gov is the U.S. government's official web portal to all federal, state and local government web resources and services.